Hauptseite
METAR-TAF:

METAR-TAF

Flughäfen :

Nancy, Frankreich

Breite: 48-41N, Länge: 006-13E, Höhe: 225 m

Beobachtung

Neuester Wetterbericht von vor 28 Minuten, um 19:00 UTC
Wind 12 kt aus Süd/Südost, variierte zwischen Ost/Südost und Süd
Temperatur 8°C
Luftfeuchtigkeit 71%
Luftdruck 997 hPa
Sichtweite 10 km oder mehr
Leicht bewölkt in der Höhe von 3700 ft
Aufgelockert bewölkt in der Höhe von 4900 ft
Durchbrochene Bewölkung in der Höhe von 6000 ft
Leichtregen,

METAR: LFSN 251900Z AUTO 15012KT 120V180 9999 -RA FEW037 SCT049 BKN060 08/03 Q0997

Zeit: 20:28 (19:28 UTC)


TAF: fehlend

Wetterbeobachtungen und Prognosen von mehr als 4000 Flughäfen (METAR und TAF Bericht).

Die verfügbaren Stationen werden durch gelbe und rote Markierungen auf der Karte dargestellt.

Führen Sie die Maus auf sie, um den Namen der Station zu sehen.

Darauf klicken, um die Beobachtung von Wetterbeobachtungen und Prognosen zu sehen.

Um die Karte zu ändern : klicken Sie auf den grünen Tasten mit einem schwarzen Kreuz Zum Vergrößern, auf den grünen Button mit einem Gedankenstrich zu verkleinern, oder auf die grünen Pfeile für benachbarte Karten.


METAR-TAF: